Find Kosmos-1056

NORAD ID: 11133 Int'l Des: 1978-109 Owner: GUKOSR Country: SU operational
LEOCIRCULAR

实时位置

正在加载3D地球...

关于 Kosmos-1056

正在加载描述...

即将过境

Passes for default location (London). Set your location on the main map for personalized predictions.

高度历史

Loading altitude history...

两行轨道根数

1 11133U 78109F 26106.68895955 -.00000024 00000-0 -59640-4 0 9990
2 11133 74.0143 268.6521 0019633 46.7064 325.7287 12.44515900151696
Epoch: Apr 16, 2026 • Age: 17 hours

当前状态

高度 1517.5 km
速度 7.10 km/s
星下点 -39.37°S, 119.47°E
发射日期 Dec 5, 1978
运行时间 47.3 years
类型 other

技术详情

分类 Payload
质量 60.00 kg
干质量 60.00 kg
总质量 60.00 kg
长度 0.80 m
直径 0.80 m
跨度 0.80 m
形状 Poly
制造商 NPOPM
平台类型 Strela-1 11F625
阶段状态 In Orbit
所有者/国家 GUKOSR/SU

Most Searched